Other Surface Observations
Issued by NWS Jacksonville, FL

Home | Current Version | Previous Version | Text Only | Print | Product List | Glossary On
Versions: 1 2 3 4 5 6 7 8 9 10 11 12 13 14 15 16 17 18 19 20 21 22 23 24 25 26 27 28 29 30 31 32 33 34 35 36 37 38 39 40 41 42 43 44 45 46 47 48 49 50
000
SXUS52 KJAX 242110
OSOJAX
OTHER SURFACE OBSERVATIONS
NATIONAL WEATHER SERVICE JACKSONVILLE FL
500 PM EDT THU APR 24 2014

FLZ020>025-030>033-035>038-040-242200-
...FLORIDA...

CITY           SKY/WX    TMP DP  RH WIND       PRES   REMARKS
CECIL FIELD    MOSUNNY   84  63  48 S8        29.92F
HERLONG FIELD  NOT AVBL
FERNANDINA BCH NOT AVBL
LAKE CITY      NOT AVBL
JUNIPER SPGS   NOT AVBL
BUNNELL        CLEAR     81  66  61 SE14      29.94F HAZE
KEYSTONE HGTS  FAIR      86  55  35 SW10      29.93F
$$

GAZ132>136-149>154-162>166-242200-
...GEORGIA...

CITY           SKY/WX    TMP DP  RH WIND       PRES   REMARKS
JESUP          CLOUDY    79  64  61 SE5       29.94S
HOMERVILLE     MOCLDY    84  61  45 CALM      29.93S
SWAINSBORO     CLOUDY    81  52  36 S5        29.96S
CORDELE        NOT AVBL
$$

PLEASE NOTE:  THESE OBSERVATIONS ARE NOT QUALITY CONTROLLED AND MAY
NOT BE AVAILABLE AT ALL TIMES.
$$



USA.gov is the U.S. government's official web portal to all federal, state and local government web resources and services.